Regional Weather Roundup
Issued by NWS Albany, NY

Home | Current Version | Previous Version | Graphics & Text | Print | Product List | Glossary On
Versions: 1 2 3 4 5 6 7 8 9 10 11 12 13 14 15 16 17 18 19 20 21 22 23 24 25 26 27 28 29 30 31 32 33 34 35 36 37 38 39 40 41 42 43 44 45 46 47 48 49 50
000
ASUS41 KALY 290110
RWRALY

NEW YORK STATE HOURLY WEATHER ROUNDUP
NATIONAL WEATHER SERVICE ALBANY NY
900 PM EDT FRI APR 28 2017

NOTE: "FAIR" INDICATES FEW OR NO CLOUDS BELOW 12,000 FEET WITH NO
SIGNIFICANT WEATHER AND/OR NO OBSTRUCTIONS TO VISIBILITY.

NYZ032-033-038>043-046>054-057>066-NYZ062>081-082-084-290200-
EAST


CITY           SKY/WX    TMP DP  RH WIND       PRES   REMARKS
ALBANY         MOCLDY    67  48  50 CALM      29.99R
GLENS FALLS    PTCLDY    65  45  48 CALM      29.98R
POUGHKEEPSIE   PTCLDY    76  44  32 SW6       29.99R
NEWBURGH       PTCLDY    73  48  40 W8        30.03R
MONTGOMERY     CLEAR     67  47  48 W5        30.01R
WHITE PLAINS   CLEAR     68  54  60 CALM      30.02R
ISLIP          PTCLDY    63  55  75 SW9       30.04R
NEW YORK CITY  MOCLDY    77  50  38 S6        30.01R
CENTRAL PARK   CLEAR     77  41  27 VRB3      30.04R
$$

NYZ005>009-017-018-044>046-055-056-290200-
CENTRAL


CITY           SKY/WX    TMP DP  RH WIND       PRES   REMARKS
FULTON         CLOUDY    55  44  66 NW5       30.01F
SYRACUSE       CLOUDY    62  48  60 CALM      30.00S
ROME           MOCLDY    61  51  70 CALM      30.01R
ELMIRA         CLOUDY    70  38  31 W10       30.03S
BINGHAMTON     CLOUDY    66  42  41 SW7       30.04S
MONTICELLO     PTCLDY    68  39  34 W8        30.08R
$$

NYZ026>034-041>043-087-290200-
NORTH


CITY           SKY/WX    TMP DP  RH WIND       PRES   REMARKS
WATERTOWN      CLOUDY    52  45  77 SW3       30.01S
FORT DRUM      NOT AVBL
OGDENSBURG     FAIR      58  47  65 SW8       29.99R
MASSENA        MOCLDY    61  43  51 SW13G22   29.97R
SARANAC LAKE   MOCLDY    58  31  35 SW6       29.99R
PLATTSBURGH    PTCLDY    67  31  26 CALM      29.96R
$$

NYZ001>004-010>016-019>021-085-290200-
WEST


CITY           SKY/WX    TMP DP  RH WIND       PRES   REMARKS
NIAGARA FALLS  CLOUDY    54  42  64 S12       30.00S
BUFFALO        CLOUDY    53  42  66 SW10      30.02R
DUNKIRK        CLOUDY    52  46  80 S3        30.03S
JAMESTOWN      CLOUDY    59  43  55 CALM      30.05R
WELLSVILLE     LGT RAIN  60  42  51 W8        30.06F
ROCHESTER      CLOUDY    58  44  60 CALM      30.00F
PENN YAN       CLOUDY    69  35  28 SW14      30.01F
$$

             KEY
       WCI = WIND CHILL INDEX
       VSB = VISIBILITY
       HX  = HEAT INDEX
$$



USA.gov is the U.S. government's official web portal to all federal, state and local government web resources and services.